Terminal Aerodrome Forecast
Issued by NWS

Home | Current Version | Previous Version | Text Only | Print | Product List | Glossary On
Versions: 1 2 3 4 5 6 7 8 9 10 11 12 13
000
FTUS45 KPSR 250520
TAFIPL
TAF
KIPL 250520Z 2506/2606 28016G28KT P6SM FEW200
     FM251000 28011G16KT P6SM SKC
     FM252000 25020G30KT P6SM SKC=

USA.gov is the U.S. government's official web portal to all federal, state and local government web resources and services.